Precipitable_Water
2.10 2.04 1.59 1.57 1.78 1.92 2.03 1.91 2.07 1.97 1.94 1.91 1.90 1.86 1.91 1.72 1.66 1.92 1.60 1.63 1.71 1.84 1.93 1.96 1.96 1.96 1.90 1.83 1.79 1.76 1.73 1.75 1.75 1.80 1.78 1.65 1.64 1.74 1.72 1.68 1.59 1.57 1.68
2.03 1.84 1.43 1.57 1.65 1.99 2.11 2.10 2.11 2.00 1.93 1.82 1.81 1.91 1.86 1.82 1.61 1.71 1.68 1.55 1.72 1.70 1.80 1.80 1.84 1.86 1.90 1.92 1.91 1.87 1.80 1.82 1.84 1.89 1.85 1.83 1.82 1.74 1.68 1.69 1.74 1.73 1.73
1.98 1.66 1.52 1.75 1.78 2.17 1.93 1.98 1.90 2.04 1.89 1.94 1.74 1.82 1.86 1.83 1.57 1.57 1.66 1.48 1.65 1.77 1.74 1.76 1.74 1.75 1.77 1.83 1.90 1.91 1.91 1.89 1.86 1.87 1.81 1.74 1.71 1.73 1.76 1.77 1.74 1.72 1.72
1.85 1.57 1.71 1.64 1.97 2.01 2.04 1.83 2.03 1.90 1.93 1.97 1.91 1.86 1.91 1.80 1.62 1.57 1.66 1.61 1.60 1.71 1.76 1.75 1.79 1.80 1.79 1.82 1.85 1.89 1.90 1.87 1.86 1.89 1.84 1.77 1.80 1.76 1.71 1.69 1.65 1.64 1.64
1.81 1.63 1.72 2.02 1.89 2.01 2.31 1.91 1.77 1.83 1.86 1.90 1.78 1.82 1.91 1.79 1.71 1.63 1.51 1.58 1.61 1.64 1.59 1.67 1.75 1.72 1.67 1.76 1.80 1.83 1.88 1.83 1.84 1.82 1.78 1.77 1.68 1.62 1.63 1.63 1.61 1.58 1.60
1.82 1.62 1.65 1.97 1.82 1.96 1.87 1.80 1.77 1.89 1.88 1.72 1.87 1.88 2.00 1.83 1.86 1.67 1.56 1.56 1.45 1.62 1.70 1.64 1.60 1.63 1.65 1.68 1.72 1.74 1.78 1.78 1.77 1.74 1.70 1.61 1.59 1.68 1.68 1.67 1.68 1.68 1.68
1.74 1.61 1.75 1.64 1.70 1.84 2.06 1.79 1.87 1.77 2.07 1.73 1.69 1.68 1.76 1.80 1.76 1.81 1.72 1.65 1.58 1.58 1.76 1.66 1.55 1.59 1.54 1.69 1.76 1.73 1.69 1.71 1.69 1.64 1.62 1.65 1.66 1.66 1.67 1.67 1.65 1.64 1.65
1.72 1.67 1.91 1.82 1.66 1.80 1.84 1.90 1.76 1.80 1.78 1.81 1.67 1.87 1.60 1.67 1.90 1.91 1.84 1.83 1.70 1.66 1.70 1.69 1.73 1.81 1.72 1.62 1.61 1.63 1.65 1.69 1.68 1.68 1.67 1.64 1.63 1.64 1.65 1.64 1.61 1.58 1.55
1.73 1.73 1.72 1.82 1.80 1.82 1.81 1.85 1.80 1.82 1.84 1.75 1.81 1.75 1.45 1.64 1.65 1.77 1.80 1.84 1.83 1.78 1.70 1.71 1.71 1.71 1.77 1.80 1.74 1.69 1.64 1.67 1.69 1.71 1.68 1.67 1.66 1.64 1.62 1.62 1.61 1.60 1.60
1.67 1.71 1.85 1.83 1.71 1.74 1.87 1.81 1.92 1.91 1.61 1.68 1.76 1.75 1.74 1.74 1.48 1.59 1.78 1.84 1.80 1.87 1.86 1.82 1.79 1.82 1.81 1.80 1.88 1.87 1.81 1.71 1.74 1.76 1.77 1.80 1.81 1.80 1.78 1.75 1.72 1.71 1.71
1.75 1.72 1.73 1.80 1.73 1.69 1.69 1.78 2.03 1.75 1.77 1.57 1.70 1.68 1.66 1.80 1.77 1.74 1.59 1.59 1.73 1.85 1.82 1.87 1.99 1.92 1.92 1.95 1.91 1.93 1.91 1.89 1.83 1.80 1.82 1.83 1.85 1.87 1.86 1.86 1.85 1.85 1.82
1.74 1.72 1.69 1.73 1.74 1.67 1.73 1.73 1.86 1.89 1.79 1.64 1.78 1.62 1.75 1.68 1.72 1.67 1.65 1.73 1.77 1.78 1.85 1.93 2.01 2.04 2.02 2.00 2.02 2.06 1.99 1.91 1.87 1.85 1.86 1.86 1.89 1.88 1.88 1.86 1.87 1.87 1.86
1.80 1.81 1.58 1.59 1.59 1.65 1.75 1.81 1.86 1.96 1.80 1.65 1.58 1.78 1.62 1.73 1.90 2.02 1.72 1.67 1.55 2.09 1.83 1.93 1.98 2.09 2.12 2.13 2.18 2.08 2.03 1.98 1.94 1.88 1.87 1.88 1.89 1.92 1.91 1.86 1.86 1.90 1.93
1.80 1.81 1.54 1.51 1.58 1.62 1.60 1.71 1.91 1.84 1.79 1.70 1.63 1.55 1.82 1.77 1.81 1.79 1.76 1.84 1.58 1.76 1.99 1.52 1.92 2.00 2.04 2.13 2.20 2.13 2.09 2.06 2.02 1.99 1.97 1.98 1.94 1.96 1.94 1.92 1.89 1.89 1.94
1.99 1.87 1.67 1.47 1.52 1.51 1.53 1.68 1.76 1.81 1.96 1.72 1.61 1.62 1.57 1.77 1.86 1.81 1.77 1.79 1.72 1.66 1.63 2.11 1.89 2.13 2.17 2.06 2.08 2.09 2.04 2.09 2.07 2.06 2.04 2.02 2.00 2.00 2.05 2.02 1.99 1.97 1.97
1.93 2.21 1.58 1.54 1.48 1.51 1.54 1.62 1.71 1.79 1.76 1.70 1.64 1.62 1.65 1.72 1.89 1.80 1.73 1.98 1.84 1.59 1.52 1.77 1.92 2.07 2.11 2.12 2.17 2.08 2.11 2.14 2.11 2.12 2.10 2.06 2.00 1.94 1.96 1.99 1.99 1.99 2.01
1.98 1.97 1.89 1.74 1.62 1.57 1.56 1.57 1.70 1.92 1.85 1.73 1.72 1.78 1.67 1.71 1.67 1.79 1.82 1.85 1.79 1.88 1.55 1.69 1.97 1.95 1.88 1.86 2.09 2.05 2.12 2.11 2.18 2.07 2.07 2.08 1.99 1.98 1.96 1.93 1.90 1.89 1.91
1.94 1.92 1.88 1.81 1.70 1.64 1.66 1.58 1.66 1.66 1.76 1.70 1.71 1.58 1.63 1.63 1.68 1.78 1.79 1.83 1.89 1.82 1.76 1.62 1.70 1.87 1.87 2.06 2.00 2.00 1.99 1.94 2.10 2.22 2.18 2.12 2.05 2.07 2.08 2.06 1.99 1.92 1.90
1.90 1.87 1.82 1.75 1.63 1.71 1.67 1.72 1.75 1.74 1.79 1.77 1.72 1.68 1.69 1.66 1.63 1.69 1.77 1.71 1.77 1.83 1.83 1.73 1.69 1.88 1.93 2.14 2.07 2.06 2.05 2.05 1.93 1.97 1.93 1.99 1.91 1.91 1.95 1.97 1.99 2.00 2.01
1.87 1.70 1.66 1.69 1.73 1.78 1.75 1.75 1.80 1.78 1.78 1.82 1.83 1.84 1.79 1.73 1.67 1.72 1.74 1.69 1.70 1.78 1.83 1.68 1.72 1.73 1.76 1.92 1.92 1.74 1.78 1.99 1.96 2.14 2.09 2.11 2.02 1.94 1.85 1.80 1.79 1.82 1.86
1.82 1.80 1.69 1.68 1.77 1.80 1.86 1.81 1.82 1.84 1.81 1.77 1.91 1.93 1.87 1.83 1.82 1.74 1.73 1.76 1.72 1.70 1.65 1.60 1.60 1.69 1.64 1.64 1.70 1.85 1.74 1.69 1.79 1.84 1.85 1.87 1.92 2.03 2.03 1.99 1.91 1.85 1.82
1.69 1.71 1.71 1.69 1.69 1.71 1.75 1.80 1.73 1.75 1.70 1.70 1.77 1.80 1.84 1.86 1.81 1.73 1.67 1.59 1.70 1.67 1.63 1.57 1.59 1.53 1.67 1.73 1.70 1.63 1.64 1.68 1.55 2.06 1.84 1.79 1.95 1.88 1.94 2.01 2.01 2.04 1.96
1.56 1.60 1.65 1.64 1.63 1.70 1.67 1.66 1.58 1.54 1.52 1.57 1.68 1.71 1.77 1.76 1.79 1.79 1.72 1.62 1.55 1.52 1.53 1.53 1.45 1.44 1.54 1.67 1.80 1.80 1.80 1.69 1.60 1.70 1.79 1.62 1.81 1.72 1.90 1.78 1.89 1.87 1.89
1.52 1.54 1.58 1.62 1.57 1.61 1.56 1.51 1.53 1.51 1.49 1.47 1.59 1.78 1.78 1.66 1.75 1.90 1.79 1.78 1.82 1.81 1.73 1.69 1.65 1.69 1.78 1.88 1.96 2.02 1.97 1.96 2.00 1.99 2.04 1.75 1.94 1.84 1.91 2.02 1.91 1.91 1.93
1.68 1.58 1.54 1.57 1.51 1.47 1.51 1.51 1.54 1.58 1.58 1.58 1.63 1.72 1.71 1.66 1.69 1.78 1.85 1.77 1.78 1.86 1.98 1.96 1.93 1.94 1.94 1.95 1.97 1.92 1.77 1.73 1.67 1.78 2.07 1.96 1.93 1.79 1.81 1.84 1.91 1.91 1.85
1.80 1.73 1.61 1.54 1.57 1.54 1.61 1.63 1.69 1.67 1.61 1.68 1.78 1.82 1.87 1.94 1.99 1.86 1.83 1.85 1.62 1.74 1.86 1.92 1.95 1.98 1.96 1.96 1.96 1.90 1.79 1.68 1.72 1.65 1.86 1.69 1.64 1.64 1.36 1.46 1.54 1.62 1.38
Wind_Speed
11 10 9 8 6 4 3 3 2 3 4 4 5 6 6 6 6 5 6 7 9 11 13 14 15 16 18 18 18 17 16 15 13 11 10 9 9 8 8 7 7 7 6
12 11 10 8 7 5 3 2 1 2 3 4 5 5 6 6 6 7 6 8 10 12 13 13 13 13 14 15 16 16 16 16 14 12 11 10 10 9 8 8 8 8 8
13 11 10 8 7 4 5 3 2 2 2 3 3 5 6 7 7 7 8 8 9 10 12 12 11 11 12 13 14 15 16 16 14 13 12 11 10 10 9 9 9 10 10
14 13 10 9 7 5 6 3 1 2 2 3 4 5 5 6 7 8 8 9 9 9 10 10 10 10 10 10 11 15 17 16 15 13 12 12 11 10 10 10 11 11 11
15 14 11 9 8 6 5 4 3 2 1 3 4 5 5 6 7 7 8 8 8 8 8 9 10 9 9 8 7 10 15 16 15 13 12 11 11 11 11 11 11 11 11
15 14 12 9 9 6 6 5 3 1 2 2 3 4 5 5 6 6 7 7 7 7 9 7 8 8 9 8 8 8 11 13 14 13 11 11 11 11 11 10 10 10 10
16 14 11 10 9 7 6 5 4 3 2 2 4 4 5 4 4 5 5 6 6 7 8 8 8 8 8 9 9 9 10 11 11 11 11 10 9 9 9 9 9 9 9
16 15 11 11 9 8 7 5 4 3 2 2 2 5 4 4 5 4 4 5 5 6 6 7 7 8 7 8 8 9 9 9 9 9 9 8 8 8 8 8 8 8 8
15 14 12 10 10 9 7 6 4 3 3 4 4 5 4 2 6 5 5 5 6 6 6 6 6 7 7 6 8 8 9 9 9 8 8 8 7 7 7 7 7 7 7
15 14 13 11 10 10 8 7 5 4 4 4 4 4 4 4 5 5 7 6 7 7 6 6 7 7 7 7 7 8 8 9 8 8 8 7 7 7 7 7 7 7 8
15 15 14 13 11 10 9 8 6 6 5 5 4 4 4 5 6 6 8 8 8 8 7 7 8 8 8 7 7 8 8 8 8 8 8 8 8 7 7 7 7 7 8
14 15 15 14 12 11 9 9 8 7 6 6 6 6 6 5 4 7 5 5 8 8 7 7 8 9 8 8 8 7 9 9 9 9 9 8 8 8 8 8 8 8 8
15 16 16 16 14 12 11 10 10 9 8 8 7 6 6 8 7 6 5 6 5 7 5 5 7 8 8 8 9 9 9 9 9 10 10 10 10 10 10 10 10 10 10
14 16 17 17 15 13 13 12 11 11 10 9 9 8 7 7 7 7 7 6 7 6 5 3 7 7 9 8 8 9 9 10 10 11 11 11 11 12 12 12 12 12 12
14 16 17 18 16 15 14 13 12 11 10 10 10 9 9 8 8 8 8 7 6 6 5 2 5 7 7 9 10 9 9 11 11 12 12 13 13 13 13 13 14 14 15
17 18 17 17 17 16 15 14 13 12 11 11 10 10 10 9 9 9 8 8 7 8 6 5 5 6 6 7 9 10 11 11 12 13 14 14 14 14 15 16 17 17 17
18 18 18 19 18 17 17 16 15 13 13 11 12 11 11 10 10 9 9 9 9 9 10 7 7 8 8 9 9 10 11 12 12 12 14 14 15 15 16 17 18 19 19
19 19 19 19 19 19 18 17 16 15 15 13 13 13 12 11 12 11 11 10 10 9 9 9 10 9 9 9 10 11 12 13 13 14 14 16 17 18 18 19 19 20 21
21 21 21 21 20 19 19 18 17 16 16 15 14 14 14 13 12 11 11 12 12 11 11 11 11 11 10 11 10 11 12 12 14 15 16 17 18 19 20 20 21 22 23
22 22 21 21 21 20 21 20 19 18 17 17 16 16 15 15 14 14 13 13 14 13 13 12 13 13 12 12 12 12 13 14 13 13 15 16 17 19 20 21 23 24 25
23 23 23 22 21 20 20 21 20 20 19 19 19 18 18 17 17 16 15 15 15 15 15 14 15 14 13 13 13 14 14 15 15 16 16 16 18 20 20 21 22 23 24
24 24 24 24 23 22 21 22 21 20 20 21 21 21 20 19 19 19 19 19 17 16 16 16 16 15 15 16 16 16 16 16 16 15 17 18 19 20 21 22 24 25 26
24 25 26 26 25 24 23 22 23 23 23 22 22 22 22 21 21 20 19 20 20 20 20 19 19 19 19 19 19 19 20 20 20 21 20 21 22 22 23 24 22 24 25
26 26 27 27 27 26 26 26 25 25 25 25 25 24 23 23 22 21 21 20 20 20 21 21 22 22 22 22 21 21 21 21 22 22 23 23 23 24 23 24 25 26 27
26 27 27 27 28 27 27 26 25 25 25 26 26 26 25 25 25 24 24 24 22 22 21 23 24 24 24 24 24 24 24 23 24 24 24 23 24 25 25 26 25 24 25
28 27 28 27 28 27 26 26 26 26 25 25 25 27 27 27 25 26 26 26 25 24 24 23 23 24 24 24 25 25 25 24 24 23 23 23 22 22 23 23 22 22 23
Wind_Direction
191 185 185 177 179 183 167 127 74 54 57 53 52 60 69 71 80 101 102 121 133 139 148 154 160 167 177 185 194 198 200 200 204 207 210 210 213 216 221 225 230 233 233
186 184 180 181 180 187 195 151 71 72 62 58 62 69 73 78 81 102 100 126 136 142 148 154 159 167 176 186 195 201 205 208 211 212 214 215 217 223 230 235 237 239 242
187 181 181 184 183 201 178 186 140 95 67 59 79 80 84 84 86 97 106 120 140 149 158 163 169 177 184 193 200 205 206 207 210 214 216 220 225 232 239 243 244 247 250
186 184 183 181 182 181 173 172 153 139 68 88 106 99 95 93 92 101 110 116 131 145 159 168 172 177 183 193 205 212 211 209 210 214 218 224 231 238 245 247 250 254 255
188 187 186 187 181 180 178 173 155 134 103 115 114 115 112 107 104 107 111 119 126 134 151 164 174 180 183 185 191 199 201 203 206 210 217 223 232 242 247 252 254 255 255
187 187 186 186 186 186 187 188 183 169 136 142 129 130 134 121 117 111 115 123 126 137 146 152 167 179 185 185 179 173 182 192 200 210 218 226 240 246 247 250 252 254 255
189 188 190 194 194 192 195 184 193 185 171 152 162 147 148 148 141 131 127 131 130 136 144 146 153 161 171 181 185 186 187 193 202 213 224 232 235 238 242 247 250 253 255
188 191 192 193 194 196 198 200 209 214 204 190 182 171 167 168 180 167 155 154 146 151 154 156 160 162 164 172 181 186 191 197 203 210 216 223 228 233 239 245 249 252 255
191 193 197 197 200 203 206 200 202 224 233 214 208 202 186 180 173 174 178 179 175 170 169 171 174 174 176 176 180 187 192 196 202 208 214 220 226 232 238 244 248 252 254
196 199 201 205 206 207 212 209 221 220 211 194 185 190 203 211 182 199 193 193 189 189 188 188 189 190 189 190 188 192 196 203 208 213 218 224 230 237 242 247 251 253 255
203 206 207 208 209 212 215 217 217 214 207 211 207 195 204 200 206 220 210 196 202 202 199 202 200 199 200 202 205 207 206 209 213 218 224 230 236 240 245 250 252 255 256
209 211 210 210 211 215 218 220 221 221 225 223 223 221 224 214 229 243 242 215 215 210 214 214 206 206 206 212 215 214 215 219 223 226 230 236 240 244 249 251 253 255 257
215 213 212 213 216 221 222 222 226 226 230 230 227 235 227 229 237 241 221 242 235 212 209 205 205 213 217 219 222 223 224 227 230 232 237 241 245 248 250 252 253 254 258
217 212 214 215 219 223 225 227 228 229 233 231 230 232 236 235 238 242 239 242 245 222 210 182 203 218 223 223 226 225 230 233 235 237 241 246 250 251 252 253 255 257 261
222 216 217 217 221 224 226 228 229 228 231 233 229 230 230 235 243 247 252 238 233 225 240 162 213 230 232 225 229 233 236 237 241 245 248 250 252 252 253 256 259 261 264
223 221 218 221 223 225 228 228 229 229 230 230 231 228 234 237 243 248 244 242 237 242 257 231 231 227 229 240 236 243 244 247 252 250 250 252 253 255 258 260 261 264 266
222 225 224 224 223 226 229 228 227 230 230 232 235 228 233 240 241 243 238 242 246 246 249 247 240 251 252 251 247 248 246 254 257 255 252 252 255 260 263 265 265 267 269
225 223 228 227 229 232 232 226 227 231 233 236 235 235 236 239 240 244 243 242 242 243 244 254 251 253 257 249 254 254 257 262 264 258 256 256 259 264 266 268 268 270 272
228 229 231 231 233 234 231 227 231 235 237 236 235 235 238 240 242 243 245 238 240 242 243 247 256 255 257 255 258 262 261 267 268 263 260 262 264 266 268 270 271 272 274
230 229 230 232 233 234 232 232 234 234 237 236 236 237 240 242 244 247 247 245 245 248 248 253 258 260 257 259 260 265 267 268 273 270 263 269 267 272 273 273 273 275 276
231 231 232 233 232 234 232 232 235 238 238 238 238 240 243 245 247 247 248 248 250 250 249 252 254 258 261 259 260 267 272 274 272 274 274 275 274 276 278 277 278 278 278
233 232 232 232 232 234 233 233 236 239 241 242 242 244 245 247 248 249 249 250 252 255 254 258 260 259 264 264 266 270 273 275 275 277 276 276 281 281 282 281 281 280 281
235 234 233 233 233 234 235 236 238 242 246 247 244 246 247 249 249 249 250 250 252 253 254 257 260 262 265 266 267 271 273 274 275 277 279 281 281 282 284 287 285 282 284
236 236 235 235 235 237 239 241 242 244 246 248 247 247 247 249 249 249 250 250 252 255 256 257 259 262 264 266 268 271 273 275 277 278 278 279 281 283 285 286 287 286 287
237 236 236 236 236 239 240 241 241 243 245 247 247 247 248 249 250 251 252 253 255 257 257 259 262 265 266 267 268 271 273 275 278 278 278 282 281 286 287 287 288 289 291
237 237 236 236 236 238 238 240 241 243 246 248 248 248 249 250 253 251 251 251 254 257 261 262 264 266 268 267 267 268 272 275 277 279 277 281 283 288 290 288 286 293 296